CHINASAT 2D

导读 | 星芒AI

CHINASAT 2D 是中国自主研发的通信广播卫星,由中国航天科技集团研制,于2021年12月23日成功发射。该卫星主要用于广播电视信号传输,覆盖范围广泛,可为用户提供高质量的音视频服务。卫星采用东方红四号增强型平台,具有高功率、高承载能力和长寿命等特点,提升了中国在轨卫星通信能力,对推动国家广播电视现代化和信息产业发展具有重要意义。

基本信息
目录编号:
43920
目录名称:
CHINASAT 2D
国际标识:
2019-001A
轨道中心:
EARTH
卫星名称:
CHINASAT 2D
卫星全名:
--
卫星状态:
在轨 (已飞行2488 天)
发射日期:
2019-01-10 UTC
国别 :
中国 (CN)
星等 :
--
轨道信息
数据来源 国际轨道数据 AOE轨道数据
星历时间 2025-11-02T19:50:39+0800
11小时前
查看轨道信息
2025-11-03T02:00:00+0800
5小时前
查看轨道信息
半长轴 42164.644km 42164.728km
偏心率 0.000195 0.0002068
轨道倾角 0.018° 0.014°
近地点辐角 302.619° 306.880°
升交点赤经 280.550° 278.761°
平近点角 126.544° 216.663°
近地点 35778.286km 35777.873km
远地点 35794.732km 35795.313km
周期 1436.092分钟 1436.097分钟
每日圈数 1.002721 1.002718
详细信息
使用方式:
暂无
2D轨道图
3D轨道图
轨道高度分析图
轨道倾角分析图
轨道综合分析图
查看轨道综合分析图